[[{"header":{"parameterUnit":"m.s-1","parameterCategory":1,"la1":30.2992,"la2":30.254,"lo1":-89.0895,"lo2":-89.0443,"dy":0.0025,"dx":0.0025,"nx":19,"ny":19,"refTime":"2026-03-20T03:00:00:Z","depth":0,"parameterNumber":2,"parameterNumberName":"U-component_of_WINDS"},"data":[0,0,0,-0.0574,-0.0572,-0.049,-0.049,-0.0403,-0.0402,0,0,0,0,0,0,0,0,0,0,0,-0.0609,-0.0609,-0.0574,-0.0572,-0.049,-0.049,-0.0403,-0.0402,0,0,0,0,0,0,0,0,0,0,0,-0.0609,-0.0609,-0.0608,-0.0572,-0.049,-0.049,-0.0403,-0.0458,0,0,0,0,0,0,0,0,0,0,-0.0535,-0.0578,-0.0609,-0.0608,-0.0571,-0.0491,-0.049,-0.0461,-0.0455,-0.0448,0,-0.0444,0,-0.0422,-0.0398,-0.0397,0,0,0,-0.0564,-0.0583,-0.0551,-0.0608,-0.0571,-0.0491,-0.0525,-0.0457,-0.0451,-0.044,-0.0443,-0.0439,-0.0421,-0.0397,-0.0397,-0.0384,-0.0384,0,0,-0.0568,-0.06,-0.0556,-0.0548,-0.0562,-0.0528,-0.0522,-0.0453,-0.0458,-0.0442,-0.0437,-0.0419,-0.0397,-0.0396,-0.0384,-0.0384,0,0,0,-0.0587,-0.0603,-0.0573,-0.0552,-0.0536,-0.0525,-0.0519,-0.0461,-0.0448,-0.0435,-0.0418,-0.0396,-0.0395,-0.0383,-0.0384,-0.0432,0,0,0,-0.0589,-0.0614,-0.0575,-0.0594,-0.0537,-0.0497,-0.0529,-0.0453,-0.0444,-0.0419,-0.0396,-0.0395,-0.0383,-0.0384,-0.043,-0.045,0,0,0,-0.061,-0.0616,-0.0608,-0.0596,-0.0562,-0.0498,-0.0481,-0.0451,-0.0434,-0.0397,-0.0394,-0.0383,-0.0383,-0.0428,-0.0446,-0.0457,0,0,0,-0.0642,-0.0651,-0.061,-0.0613,-0.0563,-0.0528,-0.0481,-0.0453,-0.0427,-0.0396,-0.0383,-0.0384,-0.0427,-0.0444,-0.0455,-0.0472,-0.0482,0,0,-0.0671,-0.0656,-0.0655,-0.0616,-0.0598,-0.0538,-0.0526,-0.0472,-0.0439,-0.0404,-0.0403,-0.0431,-0.0446,-0.0457,-0.0525,-0.0533,0,0,0,-0.0675,-0.0676,-0.0664,-0.0641,-0.0601,-0.0568,-0.0512,-0.0492,-0.0462,-0.0428,-0.0436,-0.0444,-0.0449,-0.0456,-0.0463,-0.0465,-0.0388,-0.0388,-0.0388,-0.0762,-0.072,-0.0717,-0.0667,-0.0646,-0.0589,-0.0568,-0.0532,-0.0495,-0.0498,-0.0487,-0.0534,-0.0543,-0.0548,-0.0552,-0.0492,-0.0492,-0.0492,-0.0492,-0.0802,-0.0796,-0.0749,-0.0729,-0.0686,-0.0668,-0.0615,-0.059,-0.0568,-0.0538,-0.054,-0.0512,-0.0558,-0.0559,-0.0496,-0.0495,-0.0495,-0.0494,-0.0494,-0.0855,-0.0845,-0.0821,-0.0786,-0.0763,-0.0711,-0.0693,-0.0653,-0.0615,-0.0617,-0.0603,-0.0602,-0.0598,-0.0613,-0.0613,-0.0614,-0.0614,-0.0614,-0.0614,-0.092,-0.0891,-0.0881,-0.084,-0.0822,-0.0792,-0.0736,-0.0717,-0.0685,-0.0657,-0.0657,-0.0622,-0.057,-0.0559,-0.0616,-0.0616,-0.0616,-0.0615,-0.0615,-0.0978,-0.0958,-0.0943,-0.0924,-0.0874,-0.0855,-0.0805,-0.0769,-0.0747,-0.0739,-0.0703,-0.0671,-0.0653,-0.0647,-0.0637,-0.0711,-0.0711,-0.0711,-0.0711,-0.1023,-0.101,-0.0986,-0.096,-0.0929,-0.0882,-0.0867,-0.0825,-0.0778,-0.0762,-0.0745,-0.0729,-0.0725,-0.0708,-0.0701,-0.0692,-0.0778,-0.0778,-0.0778,-0.1058,-0.104,-0.1035,-0.0989,-0.0947,-0.0912,-0.0897,-0.0869,-0.0811,-0.078,-0.0749,-0.0746,-0.0719,-0.0712,-0.0681,-0.0671,-0.0652,0,0]},{"header":{"parameterUnit":"m.s-1","parameterCategory":1,"la1":30.2992,"la2":30.254,"lo1":-89.0895,"lo2":-89.0443,"dy":0.0025,"dx":0.0025,"nx":19,"ny":19,"refTime":"2026-03-20T03:00:00:Z","depth":0,"parameterNumber":3,"parameterNumberName":"V-component_of_WINDS"},"data":[0,0,0,3.8625,3.8623,3.8566,3.8566,3.8484,3.8484,0,0,0,0,0,0,0,0,0,0,0,3.864,3.864,3.8625,3.8623,3.8566,3.8566,3.8484,3.8484,0,0,0,0,0,0,0,0,0,0,0,3.8641,3.864,3.8639,3.8623,3.8566,3.8566,3.8485,3.853,0,0,0,0,0,0,0,0,0,0,3.8587,3.8601,3.864,3.8639,3.8623,3.8566,3.8565,3.8532,3.8527,3.8508,0,3.8494,0,3.8488,3.8478,3.8478,0,0,0,3.8623,3.8605,3.8591,3.8639,3.8622,3.8566,3.8592,3.8529,3.8524,3.8502,3.8493,3.849,3.8487,3.8477,3.8477,3.8379,3.8378,0,0,3.8626,3.8628,3.8595,3.8588,3.86,3.8594,3.859,3.8526,3.8515,3.8493,3.8488,3.8485,3.8477,3.8476,3.8379,3.8379,0,0,0,3.8636,3.863,3.8618,3.8591,3.8581,3.8592,3.8588,3.8518,3.8514,3.8488,3.8484,3.8476,3.8475,3.838,3.8379,3.836,0,0,0,3.8637,3.8636,3.862,3.862,3.8583,3.855,3.8581,3.8519,3.8512,3.8485,3.8476,3.8475,3.838,3.8379,3.8362,3.835,0,0,0,3.8644,3.8637,3.8628,3.862,3.8596,3.8551,3.8543,3.8517,3.851,3.8478,3.8474,3.838,3.8379,3.8363,3.8352,3.8325,0,0,0,3.8651,3.8609,3.8628,3.858,3.8597,3.8541,3.8544,3.8501,3.8471,3.8476,3.838,3.8379,3.8364,3.8354,3.8327,3.8303,3.8293,0,0,3.8599,3.8603,3.8575,3.859,3.8532,3.855,3.8487,3.8456,3.8449,3.8402,3.8399,3.8361,3.8352,3.8326,3.8241,3.8233,0,0,0,3.8559,3.8539,3.8523,3.8498,3.8476,3.8456,3.8435,3.8424,3.8385,3.8427,3.8344,3.8339,3.8323,3.8311,3.8305,3.8291,3.8374,3.8374,3.8374,3.8486,3.8484,3.8438,3.8429,3.8403,3.8385,3.8363,3.8344,3.8345,3.8326,3.8312,3.8261,3.8247,3.8243,3.8228,3.8299,3.8299,3.8299,3.8299,3.841,3.8381,3.8389,3.8346,3.8343,3.8306,3.8286,3.8289,3.8252,3.8271,3.8257,3.8277,3.8235,3.8222,3.8298,3.8298,3.8298,3.8298,3.8298,3.8361,3.8347,3.8338,3.8302,3.8274,3.8266,3.8232,3.8229,3.8226,3.8212,3.8197,3.8197,3.8196,3.8205,3.8205,3.8205,3.8205,3.8205,3.8205,3.8314,3.8304,3.8278,3.8254,3.8239,3.8217,3.82,3.8183,3.8163,3.8164,3.8164,3.8167,3.8232,3.8248,3.8202,3.8202,3.8203,3.8203,3.8203,3.8236,3.8254,3.8213,3.8198,3.8171,3.8144,3.8143,3.811,3.8095,3.8079,3.8086,3.8135,3.8137,3.8142,3.8155,3.8088,3.8088,3.8088,3.8088,3.8194,3.8197,3.8156,3.8132,3.8108,3.8104,3.8056,3.8043,3.803,3.8021,3.8031,3.8048,3.8054,3.8053,3.8059,3.8072,3.7984,3.7984,3.7984,3.8145,3.8146,3.8107,3.81,3.8079,3.8061,3.8016,3.7986,3.7975,3.798,3.8013,3.8018,3.8046,3.8056,3.8059,3.807,3.8092,0,0]}]]